Regional Weather Roundup
Issued by NWS Charleston, SC

Current Version | Previous Version | Graphics & Text | Print | Product List | Glossary On
Versions: 1 2 3 4 5 6 7 8 9 10 11 12 13 14 15 16 17 18 19 20 21 22 23 24 25 26 27 28 29 30 31 32 33 34 35 36 37 38 39 40 41 42 43 44 45 46 47 48 49 50
000 ASUS42 KCHS 201527 RWRCHS Regional Weather Roundup National Weather Service Charleston SC 1100 AM EDT FRI APR 20 2018 NOTE: "fair" indicates few or no clouds below 12,000 feet with no significant weather and/or obstructions to visibility. Not all stations are quality controlled. Use data with caution, especially dewpoint observations. SCZ027-030-031-034>040-042>050-201600- ...Southeast South Carolina... CITY SKY/WX TMP DP RH WIND PRES REMARKS N Charleston FAIR 59 31 34 E14G21 30.34R Waterfront Prk N/A 54 38 54 NE13G21 30.18R Mount Pleasant FAIR 59 32 36 E6 30.34S Johns Island FAIR 57 34 41 NE13G20 30.33S Pinopolis N/A 54 34 47 NE14 30.26R Moncks Corner FAIR 57 25 28 N8G16 30.34F HAZE Summerville FAIR 55 32 41 NE8G18 30.36S Beaufort MCAS FAIR 59 35 40 NE14G20 30.34R Beaufort Arpt FAIR 55 36 47 E9G22 30.34R Hilton Head Is MOSUNNY 57 37 47 NE18G24 30.34R Walterboro FAIR 59 32 36 NE13G18 30.36S Allendale FAIR 57 30 35 VRB5G15 30.35S ...Southern Midlands and Pee Dee... CITY SKY/WX TMP DP RH WIND PRES REMARKS Georgetown FAIR 57 28 33 NE12G17 30.35S Kingstree FAIR 55 28 35 N7 30.36S Orangeburg FAIR 56 28 34 NE12 30.36S Barnwell FAIR 57 28 33 NE13G18 30.37R Aiken FAIR 55 30 38 NE13 30.40R Manning FAIR 52 25 35 NE9 30.36S Columbia FAIR 59 29 31 N13 30.37S Sumter FAIR 57 28 33 NE16 30.35S Florence FAIR 57 29 34 N9 30.37S Myrtle Beach FAIR 58 30 34 NE10G18 30.36R N Myrtle Beach FAIR 58 29 33 NE12 30.34R $$ GAZ063-065-086>088-099>101-113>116-118-119-134>141-150-201600- ...Southeast Georgia... CITY SKY/WX TMP DP RH WIND PRES REMARKS Savannah Arpt PTSUNNY 59 35 40 E12 30.33R Hunter AAF FAIR 58 35 42 E14G20 30.31R Fort Stewart FAIR 58 34 40 NE10 30.31R Statesboro FAIR 58 27 30 NE10G16 30.34S Sylvania FAIR 59 37 44 NE12 30.35S Claxton FAIR 58 34 40 N12G18 30.34R ...CSRA, Central and far Southeast Georgia... CITY SKY/WX TMP DP RH WIND PRES REMARKS Thomson FAIR 56 30 36 SE14G21 30.42S Augusta-Bush FAIR 59 29 31 NE14G21 30.37R Augusta-Daniel FAIR 58 27 30 E14 30.37R Swainsboro FAIR 57 32 38 E12G20 30.35S Vidalia FAIR 59 36 41 E17 30.33S Eastman FAIR 60 13 16 NE14G21 30.35S Hazlehurst FAIR 59 31 33 NE8 30.30S Alma FAIR 59 35 40 E9G20 30.29R Waycross FAIR 61 34 36 E14G21 30.29R Jesup FAIR 61 36 39 NE10G16 30.30 Baxley FAIR 57 34 41 NE10 30.30S Brunswick CLOUDY 61 45 55 NE21G28 30.30R Saint Simons CLOUDY 62 48 60 NE23G33 30.28R $$ SCZ027-028-034-036>038-045-046-048>050-GAZ119-141-201600- ...Lake and Supplemental Coastal Observations... STATION/POSITION TIME TEMP WIND PRES WAVE SWELL AIR SEA DIR/SP/G HT/PER HT/PER/DIR (UTC) (F) (DEG/KT/KT) (MB) (FT/S) (FT/S/D) Winyah Bay 1445 53 50/ 14 1028.0R Lake Murray 1420 54 30/ 6/ 11 1027.8 ACE Basin NERRS 1445 57 350/ 5 N/A Fort Pulaski 1500 55 65 60/ 13/ 19 1027.2 Sapelo Island 1500 59 40/ 16 1026.0 $$ ANZ835-935-AMZ111-154-330-350-352-354-370-450-454-472-201600- ...C-MAN and Buoy Observations... STATION/POSITION TIME TEMP WIND PRES WAVE SWELL AIR SEA DIR/SP/G HT/PER HT/PER/DIR (UTC) (F) (DEG/KT/KT) (MB) (FT/S) (FT/S/D) Buoy 41004 1510 58 68 40/ 23/ 31 1025.6 Buoy 41008 1450 58 65 50/ 21/ 27 1024.8R 8/ 7 2/15 Folly Beach CMAN 1500 55 30/ 20/ 24 1027.6R Capers Nearshore 1508 55 63 60/ 23/ 29 1027.5R Fripp Nearshore 1508 55 63 50/ 19/ 29 1026.2R STATION/POSITION TIME TEMP WIND PRES WAVE SWELL AIR SEA DIR/SP/G HT/PER HT/PER/DIR (UTC) (F) (DEG/KT/KT) (MB) (FT/S) (FT/S/D) 5E St. Marys GA 1500 65 N/A 9/ 8 Frying Pan Buoy 1510 55 65 40/ 19/ 25 1026.8 Buoy 41025 1510 52 71 340/ 17/ 25 1026.4 Cape Lookout NC 1500 360/ 10/ 14 1027.0R Buoy 41002 1510 66 71 30/ 19/ 23 1022.5 Buoy 41010 1510 75 74 310/ 4/ 4 1020.8 St Augustine FL 1500 65 67 10/ 25/ 28 1022.6R $$

USA.gov is the U.S. government's official web portal to all federal, state and local government web resources and services.